Time,TemperatureF,DewpointF,PressureIn,WindDirection,WindDirectionDegrees,WindSpeedMPH,WindSpeedGustMPH,Humidity,HourlyPrecipIn,Conditions,Clouds,dailyrainin,SoftwareType,DateUTC
2013-05-28 00:04:00,63.4,38.0,30.22,SW,225,3.0,6.0,39,0.00,,,-99.99,WeatherLink 5.7,2013-05-28 04:04:00,
2013-05-28 00:14:00,63.1,37.7,30.22,SW,225,3.0,6.0,39,0.00,,,-99.99,WeatherLink 5.7,2013-05-28 04:14:00,
2013-05-28 00:24:00,63.1,37.7,30.22,SW,225,3.0,7.0,39,0.00,,,-99.99,WeatherLink 5.7,2013-05-28 04:24:00,
2013-05-28 00:34:00,63.0,38.3,30.22,SW,225,3.0,7.0,40,0.00,,,-99.99,WeatherLink 5.7,2013-05-28 04:34:00,
2013-05-28 00:44:00,62.9,38.2,30.23,SW,225,2.0,5.0,40,0.00,,,-99.99,WeatherLink 5.7,2013-05-28 04:44:00,
2013-05-28 00:54:00,62.6,38.6,30.23,SW,225,2.0,5.0,41,0.00,,,-99.99,WeatherLink 5.7,2013-05-28 04:54:00,
2013-05-28 01:03:00,62.5,38.5,30.23,SW,225,2.0,5.0,41,0.00,,,-99.99,WeatherLink 5.7,2013-05-28 05:03:00,
2013-05-28 01:14:00,62.3,38.9,30.24,SW,225,1.0,4.0,42,0.00,,,-99.99,WeatherLink 5.7,2013-05-28 05:14:00,
2013-05-28 01:24:00,62.1,38.7,30.24,SW,225,1.0,4.0,42,0.00,,,-99.99,WeatherLink 5.7,2013-05-28 05:24:00,
2013-05-28 01:34:00,62.0,39.2,30.23,SW,225,2.0,6.0,43,0.00,,,-99.99,WeatherLink 5.7,2013-05-28 05:34:00,
2013-05-28 01:44:00,61.6,39.5,30.24,SW,225,2.0,5.0,44,0.00,,,-99.99,WeatherLink 5.7,2013-05-28 05:44:00,
2013-05-28 01:54:00,61.2,40.2,30.23,SW,225,1.0,5.0,46,0.00,,,-99.99,WeatherLink 5.7,2013-05-28 05:54:00,
2013-05-28 02:04:00,60.8,39.9,30.24,SW,225,0.0,3.0,46,0.00,,,-99.99,WeatherLink 5.7,2013-05-28 06:04:00,
2013-05-28 02:14:00,60.9,40.0,30.23,SW,225,0.0,3.0,46,0.00,,,-99.99,WeatherLink 5.7,2013-05-28 06:14:00,
2013-05-28 02:24:00,61.2,40.2,30.23,SW,225,1.0,4.0,46,0.00,,,-99.99,WeatherLink 5.7,2013-05-28 06:24:00,
2013-05-28 02:34:00,61.1,40.7,30.23,SW,225,1.0,4.0,47,0.00,,,-99.99,WeatherLink 5.7,2013-05-28 06:34:00,
2013-05-28 02:46:00,60.7,40.9,30.23,SW,225,1.0,4.0,48,0.00,,,-99.99,WeatherLink 5.7,2013-05-28 06:46:00,
2013-05-28 02:54:00,60.5,40.7,30.23,SW,225,0.0,3.0,48,0.00,,,-99.99,WeatherLink 5.7,2013-05-28 06:54:00,
2013-05-28 03:06:00,60.1,40.9,30.23,SW,225,0.0,1.0,49,0.00,,,-99.99,WeatherLink 5.7,2013-05-28 07:06:00,
2013-05-28 03:14:00,59.8,41.1,30.23,SW,225,1.0,3.0,50,0.00,,,-99.99,WeatherLink 5.7,2013-05-28 07:14:00,
2013-05-28 03:24:00,59.4,41.3,30.23,SW,225,0.0,1.0,51,0.00,,,-99.99,WeatherLink 5.7,2013-05-28 07:24:00,
2013-05-28 03:34:00,58.8,41.7,30.23,North,-999,0.0,1.0,53,0.00,,,-99.99,WeatherLink 5.7,2013-05-28 07:34:00,
2013-05-28 03:44:00,58.2,42.1,30.23,SW,225,0.0,1.0,55,0.00,,,-99.99,WeatherLink 5.7,2013-05-28 07:44:00,
2013-05-28 03:54:00,57.7,42.6,30.23,SW,225,0.0,1.0,57,0.00,,,-99.99,WeatherLink 5.7,2013-05-28 07:54:00,
2013-05-28 04:03:00,57.3,42.2,30.23,SW,225,0.0,2.0,57,0.00,,,-99.99,WeatherLink 5.7,2013-05-28 08:03:00,
2013-05-28 04:13:00,57.6,42.0,30.23,SW,225,0.0,1.0,56,0.00,,,-99.99,WeatherLink 5.7,2013-05-28 08:13:00,
2013-05-28 04:24:00,57.6,42.5,30.23,SW,225,0.0,2.0,57,0.00,,,-99.99,WeatherLink 5.7,2013-05-28 08:24:00,
2013-05-28 04:34:00,57.6,42.5,30.23,SW,225,0.0,2.0,57,0.00,,,-99.99,WeatherLink 5.7,2013-05-28 08:34:00,
2013-05-28 04:44:00,57.5,42.4,30.22,SW,225,0.0,1.0,57,0.00,,,-99.99,WeatherLink 5.7,2013-05-28 08:44:00,
2013-05-28 04:54:00,57.2,42.5,30.22,SW,225,0.0,1.0,58,0.00,,,-99.99,WeatherLink 5.7,2013-05-28 08:54:00,
2013-05-28 05:04:00,56.9,43.2,30.23,SW,225,0.0,1.0,60,0.00,,,-99.99,WeatherLink 5.7,2013-05-28 09:04:00,
2013-05-28 05:13:00,56.4,43.1,30.23,SW,225,0.0,2.0,61,0.00,,,-99.99,WeatherLink 5.7,2013-05-28 09:13:00,
2013-05-28 05:24:00,55.7,42.9,30.22,SW,225,0.0,1.0,62,0.00,,,-99.99,WeatherLink 5.7,2013-05-28 09:24:00,
2013-05-28 05:34:00,54.8,42.9,30.23,SW,225,0.0,2.0,64,0.00,,,-99.99,WeatherLink 5.7,2013-05-28 09:34:00,
2013-05-28 05:44:00,55.4,43.0,30.23,SW,225,0.0,2.0,63,0.00,,,-99.99,WeatherLink 5.7,2013-05-28 09:44:00,
2013-05-28 05:54:00,55.8,42.5,30.23,SW,225,0.0,1.0,61,0.00,,,-99.99,WeatherLink 5.7,2013-05-28 09:54:00,
2013-05-28 06:03:00,55.7,42.5,30.23,SW,225,0.0,1.0,61,0.00,,,-99.99,WeatherLink 5.7,2013-05-28 10:03:00,
2013-05-28 06:14:00,55.4,43.4,30.23,SW,225,0.0,1.0,64,0.00,,,-99.99,WeatherLink 5.7,2013-05-28 10:14:00,
2013-05-28 06:24:00,55.9,43.1,30.23,SW,225,0.0,2.0,62,0.00,,,-99.99,WeatherLink 5.7,2013-05-28 10:24:00,
2013-05-28 06:34:00,57.0,42.8,30.24,SW,225,1.0,3.0,59,0.00,,,-99.99,WeatherLink 5.7,2013-05-28 10:34:00,
2013-05-28 06:44:00,57.5,42.8,30.24,SW,225,0.0,3.0,58,0.00,,,-99.99,WeatherLink 5.7,2013-05-28 10:44:00,
2013-05-28 06:54:00,57.6,43.4,30.24,SW,225,0.0,3.0,59,0.00,,,-99.99,WeatherLink 5.7,2013-05-28 10:54:00,
2013-05-28 07:03:00,58.4,43.7,30.25,SW,225,1.0,4.0,58,0.00,,,-99.99,WeatherLink 5.7,2013-05-28 11:03:00,
2013-05-28 07:14:00,58.5,43.8,30.25,SW,225,1.0,4.0,58,0.00,,,-99.99,WeatherLink 5.7,2013-05-28 11:14:00,
2013-05-28 07:24:00,58.7,43.5,30.24,SW,225,0.0,2.0,57,0.00,,,-99.99,WeatherLink 5.7,2013-05-28 11:24:00,
2013-05-28 07:34:00,59.7,43.5,30.25,SW,225,2.0,4.0,55,0.00,,,-99.99,WeatherLink 5.7,2013-05-28 11:34:00,
2013-05-28 07:44:00,60.0,44.3,30.25,SW,225,1.0,4.0,56,0.00,,,-99.99,WeatherLink 5.7,2013-05-28 11:44:00,
2013-05-28 07:54:00,60.4,42.7,30.24,SW,225,0.0,4.0,52,0.00,,,-99.99,WeatherLink 5.7,2013-05-28 11:54:00,
2013-05-28 08:04:00,61.0,42.7,30.24,SW,225,1.0,3.0,51,0.00,,,-99.99,WeatherLink 5.7,2013-05-28 12:04:00,
2013-05-28 08:14:00,61.3,42.5,30.25,SW,225,0.0,3.0,50,0.00,,,-99.99,WeatherLink 5.7,2013-05-28 12:14:00,
2013-05-28 08:24:00,62.2,41.7,30.24,SW,225,0.0,2.0,47,0.00,,,-99.99,WeatherLink 5.7,2013-05-28 12:24:00,
2013-05-28 08:34:00,63.4,42.8,30.24,SW,225,0.0,1.0,47,0.00,,,-99.99,WeatherLink 5.7,2013-05-28 12:34:00,
2013-05-28 08:44:00,65.0,42.5,30.25,SW,225,0.0,2.0,44,0.00,,,-99.99,WeatherLink 5.7,2013-05-28 12:44:00,
2013-05-28 08:54:00,65.8,42.7,30.25,SW,225,0.0,4.0,43,0.00,,,-99.99,WeatherLink 5.7,2013-05-28 12:54:00,
2013-05-28 09:04:00,66.0,42.9,30.25,SW,225,1.0,4.0,43,0.00,,,-99.99,WeatherLink 5.7,2013-05-28 13:04:00,
2013-05-28 09:14:00,66.3,42.5,30.25,SW,225,1.0,4.0,42,0.00,,,-99.99,WeatherLink 5.7,2013-05-28 13:14:00,
2013-05-28 09:24:00,67.0,43.8,30.25,SW,225,0.0,3.0,43,0.00,,,-99.99,WeatherLink 5.7,2013-05-28 13:24:00,
2013-05-28 09:34:00,67.6,44.3,30.25,SW,225,1.0,3.0,43,0.00,,,-99.99,WeatherLink 5.7,2013-05-28 13:34:00,
2013-05-28 09:44:00,66.9,43.0,30.26,SW,225,2.0,7.0,42,0.00,,,-99.99,WeatherLink 5.7,2013-05-28 13:44:00,
2013-05-28 09:54:00,67.1,43.2,30.25,SW,225,2.0,5.0,42,0.00,,,-99.99,WeatherLink 5.7,2013-05-28 13:54:00,
2013-05-28 10:04:00,67.7,43.1,30.26,SW,225,2.0,6.0,41,0.00,,,-99.99,WeatherLink 5.7,2013-05-28 14:04:00,
2013-05-28 10:14:00,67.7,43.8,30.26,SW,225,3.0,7.0,42,0.00,,,-99.99,WeatherLink 5.7,2013-05-28 14:14:00,
2013-05-28 10:24:00,67.8,45.1,30.25,SW,225,1.0,5.0,44,0.00,,,-99.99,WeatherLink 5.7,2013-05-28 14:24:00,
2013-05-28 10:34:00,67.8,47.4,30.26,SW,225,1.0,6.0,48,0.00,,,-99.99,WeatherLink 5.7,2013-05-28 14:34:00,
2013-05-28 10:44:00,66.9,48.7,30.26,SW,225,2.0,6.0,52,0.00,,,-99.99,WeatherLink 5.7,2013-05-28 14:44:00,
2013-05-28 10:54:00,66.0,50.3,30.26,SW,225,1.0,3.0,57,0.00,,,-99.99,WeatherLink 5.7,2013-05-28 14:54:00,
2013-05-28 11:04:00,65.3,50.6,30.26,SW,225,1.0,3.0,59,0.00,,,-99.99,WeatherLink 5.7,2013-05-28 15:04:00,
2013-05-28 11:14:00,64.9,51.1,30.27,SW,225,1.0,3.0,61,0.00,,,-99.99,WeatherLink 5.7,2013-05-28 15:14:00,
2013-05-28 11:24:00,64.4,51.5,30.26,SW,225,1.0,5.0,63,0.00,,,-99.99,WeatherLink 5.7,2013-05-28 15:24:00,
2013-05-28 11:34:00,64.1,51.2,30.27,SW,225,0.0,3.0,63,0.00,,,-99.99,WeatherLink 5.7,2013-05-28 15:34:00,
2013-05-28 11:44:00,63.9,51.5,30.27,SW,225,1.0,4.0,64,0.00,,,-99.99,WeatherLink 5.7,2013-05-28 15:44:00,
2013-05-28 11:54:00,63.7,52.1,30.27,SW,225,0.0,3.0,66,0.00,,,-99.99,WeatherLink 5.7,2013-05-28 15:54:00,
2013-05-28 12:04:00,63.5,51.5,30.26,SSW,202,1.0,6.0,65,0.00,,,-99.99,WeatherLink 5.7,2013-05-28 16:04:00,
2013-05-28 12:14:00,63.0,49.8,30.26,SSW,202,2.0,5.0,62,0.00,,,-99.99,WeatherLink 5.7,2013-05-28 16:14:00,
2013-05-28 12:24:00,62.6,50.2,30.26,SSW,202,1.0,5.0,64,0.00,,,-99.99,WeatherLink 5.7,2013-05-28 16:24:00,
2013-05-28 12:34:00,62.3,50.4,30.25,SSW,202,0.0,4.0,65,0.00,,,-99.99,WeatherLink 5.7,2013-05-28 16:34:00,
2013-05-28 12:44:00,62.2,50.7,30.25,SSW,202,1.0,3.0,66,0.00,,,-99.99,WeatherLink 5.7,2013-05-28 16:44:00,
2013-05-28 12:54:00,62.3,51.2,30.24,SSW,202,2.0,6.0,67,0.00,,,-99.99,WeatherLink 5.7,2013-05-28 16:54:00,
2013-05-28 13:04:00,61.9,51.6,30.24,South,180,2.0,6.0,69,0.00,,,-99.99,WeatherLink 5.7,2013-05-28 17:04:00,
2013-05-28 13:14:00,61.5,50.4,30.24,SSE,157,3.0,6.0,67,0.00,,,-99.99,WeatherLink 5.7,2013-05-28 17:14:00,
2013-05-28 13:24:00,61.2,51.3,30.24,SSE,157,3.0,6.0,70,0.00,,,-99.99,WeatherLink 5.7,2013-05-28 17:24:00,
2013-05-28 13:34:00,61.1,52.0,30.23,SE,135,2.0,5.0,72,0.00,,,-99.99,WeatherLink 5.7,2013-05-28 17:34:00,
2013-05-28 13:44:00,61.1,52.4,30.23,SE,135,3.0,7.0,73,0.00,,,-99.99,WeatherLink 5.7,2013-05-28 17:44:00,
2013-05-28 13:54:00,60.7,52.7,30.22,ESE,112,3.0,8.0,75,0.00,,,-99.99,WeatherLink 5.7,2013-05-28 17:54:00,
2013-05-28 14:04:00,60.2,52.6,30.22,ESE,112,3.0,8.0,76,0.00,,,-99.99,WeatherLink 5.7,2013-05-28 18:04:00,
2013-05-28 14:14:00,59.8,52.6,30.22,ESE,112,4.0,10.0,77,0.00,,,-99.99,WeatherLink 5.7,2013-05-28 18:14:00,
2013-05-28 14:24:00,59.6,50.9,30.21,ESE,112,4.0,10.0,73,0.00,,,-99.99,WeatherLink 5.7,2013-05-28 18:24:00,
2013-05-28 14:34:00,59.3,50.3,30.22,ESE,112,4.0,9.0,72,0.00,,,-99.99,WeatherLink 5.7,2013-05-28 18:34:00,
2013-05-28 14:44:00,58.9,50.3,30.23,ESE,112,3.0,9.0,73,0.00,,,-99.99,WeatherLink 5.7,2013-05-28 18:44:00,
2013-05-28 14:54:00,58.6,50.3,30.23,ESE,112,3.0,5.0,74,0.00,,,-99.99,WeatherLink 5.7,2013-05-28 18:54:00,
2013-05-28 15:04:00,57.2,51.4,30.23,ESE,112,2.0,5.0,81,0.00,,,-99.99,WeatherLink 5.7,2013-05-28 19:04:00,
2013-05-28 15:14:00,56.2,51.4,30.24,ESE,112,1.0,4.0,84,0.00,,,-99.99,WeatherLink 5.7,2013-05-28 19:14:00,
2013-05-28 15:24:00,56.0,52.2,30.23,ESE,112,3.0,5.0,87,0.00,,,-99.99,WeatherLink 5.7,2013-05-28 19:24:00,
2013-05-28 15:34:00,56.7,52.6,30.22,ESE,112,4.0,6.0,86,0.00,,,-99.99,WeatherLink 5.7,2013-05-28 19:34:00,
2013-05-28 15:44:00,57.1,53.3,30.21,ESE,112,3.0,6.0,87,0.00,,,-99.99,WeatherLink 5.7,2013-05-28 19:44:00,
2013-05-28 15:54:00,57.4,53.6,30.21,ESE,112,3.0,7.0,87,0.00,,,-99.99,WeatherLink 5.7,2013-05-28 19:54:00,
2013-05-28 16:04:00,57.2,53.4,30.22,ESE,112,3.0,6.0,87,0.00,,,-99.99,WeatherLink 5.7,2013-05-28 20:04:00,
2013-05-28 16:14:00,56.7,53.5,30.22,NE,45,4.0,8.0,89,0.00,,,-99.99,WeatherLink 5.7,2013-05-28 20:14:00,
2013-05-28 16:24:00,56.4,53.5,30.22,NE,45,3.0,7.0,90,0.00,,,-99.99,WeatherLink 5.7,2013-05-28 20:24:00,
2013-05-28 16:34:00,56.4,54.1,30.23,NE,45,3.0,8.0,92,0.00,,,-99.99,WeatherLink 5.7,2013-05-28 20:34:00,
2013-05-28 16:44:00,56.6,54.6,30.21,NE,45,3.0,8.0,93,0.00,,,-99.99,WeatherLink 5.7,2013-05-28 20:44:00,
2013-05-28 16:54:00,57.0,54.7,30.21,ENE,67,3.0,7.0,92,0.00,,,-99.99,WeatherLink 5.7,2013-05-28 20:54:00,
2013-05-28 17:04:00,57.0,55.0,30.21,ENE,67,3.0,7.0,93,0.00,,,-99.99,WeatherLink 5.7,2013-05-28 21:04:00,
2013-05-28 17:14:00,57.2,55.2,30.20,ENE,67,3.0,6.0,93,0.00,,,-99.99,WeatherLink 5.7,2013-05-28 21:14:00,
2013-05-28 17:24:00,57.3,55.6,30.20,ENE,67,3.0,6.0,94,0.00,,,-99.99,WeatherLink 5.7,2013-05-28 21:24:00,
2013-05-28 17:34:00,57.3,55.6,30.20,NE,45,3.0,8.0,94,0.00,,,-99.99,WeatherLink 5.7,2013-05-28 21:34:00,
2013-05-28 17:44:00,57.4,56.0,30.20,NE,45,3.0,7.0,95,0.00,,,-99.99,WeatherLink 5.7,2013-05-28 21:44:00,
2013-05-28 17:54:00,57.5,56.1,30.19,NE,45,2.0,5.0,95,0.00,,,-99.99,WeatherLink 5.7,2013-05-28 21:54:00,
2013-05-28 18:03:00,57.9,56.5,30.19,ENE,67,1.0,4.0,95,0.00,,,-99.99,WeatherLink 5.7,2013-05-28 22:03:00,
2013-05-28 18:14:00,58.2,56.8,30.19,ENE,67,2.0,6.0,95,0.00,,,-99.99,WeatherLink 5.7,2013-05-28 22:14:00,
2013-05-28 18:24:00,58.3,56.9,30.19,ENE,67,1.0,6.0,95,0.00,,,-99.99,WeatherLink 5.7,2013-05-28 22:24:00,
2013-05-28 18:34:00,58.6,57.5,30.19,ENE,67,1.0,4.0,96,0.00,,,-99.99,WeatherLink 5.7,2013-05-28 22:34:00,
2013-05-28 18:44:00,59.3,58.2,30.18,ENE,67,3.0,5.0,96,0.00,,,-99.99,WeatherLink 5.7,2013-05-28 22:44:00,
2013-05-28 18:54:00,59.8,58.1,30.19,ENE,67,2.0,5.0,94,0.00,,,-99.99,WeatherLink 5.7,2013-05-28 22:54:00,
2013-05-28 19:04:00,59.6,57.9,30.19,ENE,67,1.0,4.0,94,0.00,,,-99.99,WeatherLink 5.7,2013-05-28 23:04:00,
2013-05-28 19:14:00,59.9,57.9,30.19,ENE,67,2.0,4.0,93,0.00,,,-99.99,WeatherLink 5.7,2013-05-28 23:14:00,
2013-05-28 19:24:00,60.1,57.8,30.18,ENE,67,2.0,5.0,92,0.00,,,-99.99,WeatherLink 5.7,2013-05-28 23:24:00,
2013-05-28 19:34:00,60.4,57.5,30.18,ENE,67,1.0,4.0,90,0.00,,,-99.99,WeatherLink 5.7,2013-05-28 23:34:00,
2013-05-28 19:44:00,60.1,57.2,30.18,ENE,67,2.0,4.0,90,0.00,,,-99.99,WeatherLink 5.7,2013-05-28 23:44:00,
2013-05-28 19:54:00,59.7,57.1,30.18,ENE,67,1.0,4.0,91,0.00,,,-99.99,WeatherLink 5.7,2013-05-28 23:54:00,
2013-05-28 20:04:00,59.8,57.2,30.18,ENE,67,0.0,3.0,91,0.00,,,-99.99,WeatherLink 5.7,2013-05-29 00:04:00,
2013-05-28 20:14:00,59.4,57.1,30.17,ENE,67,1.0,3.0,92,0.00,,,-99.99,WeatherLink 5.7,2013-05-29 00:14:00,
2013-05-28 20:24:00,59.1,57.1,30.17,ENE,67,1.0,4.0,93,0.00,,,-99.99,WeatherLink 5.7,2013-05-29 00:24:00,
2013-05-28 20:34:00,59.0,57.3,30.17,ENE,67,0.0,3.0,94,0.00,,,-99.99,WeatherLink 5.7,2013-05-29 00:34:00,
2013-05-28 20:44:00,59.2,57.5,30.17,ENE,67,0.0,3.0,94,0.00,,,-99.99,WeatherLink 5.7,2013-05-29 00:44:00,
2013-05-28 20:54:00,59.2,57.5,30.17,ENE,67,2.0,5.0,94,0.00,,,-99.99,WeatherLink 5.7,2013-05-29 00:54:00,
2013-05-28 21:04:00,59.3,57.9,30.17,ENE,67,1.0,3.0,95,0.00,,,-99.99,WeatherLink 5.7,2013-05-29 01:04:00,
2013-05-28 21:14:00,59.4,58.0,30.17,ENE,67,1.0,4.0,95,0.00,,,-99.99,WeatherLink 5.7,2013-05-29 01:14:00,
2013-05-28 21:24:00,59.3,57.6,30.18,ENE,67,1.0,4.0,94,0.00,,,-99.99,WeatherLink 5.7,2013-05-29 01:24:00,
2013-05-28 21:34:00,59.2,57.8,30.18,ENE,67,1.0,3.0,95,0.00,,,-99.99,WeatherLink 5.7,2013-05-29 01:34:00,
2013-05-28 21:44:00,59.1,57.7,30.17,ENE,67,4.0,9.0,95,0.00,,,-99.99,WeatherLink 5.7,2013-05-29 01:44:00,
2013-05-28 21:54:00,59.1,58.0,30.18,NNE,22,2.0,5.0,96,0.00,,,-99.99,WeatherLink 5.7,2013-05-29 01:54:00,
2013-05-28 22:04:00,59.1,58.0,30.18,NE,45,2.0,5.0,96,0.00,,,-99.99,WeatherLink 5.7,2013-05-29 02:04:00,
2013-05-28 22:14:00,59.4,58.5,30.17,NE,45,2.0,5.0,97,0.00,,,-99.99,WeatherLink 5.7,2013-05-29 02:14:00,
2013-05-28 22:24:00,59.7,58.6,30.17,NE,45,2.0,5.0,96,0.00,,,-99.99,WeatherLink 5.7,2013-05-29 02:24:00,
2013-05-28 22:34:00,60.0,58.9,30.17,ENE,67,2.0,6.0,96,0.00,,,-99.99,WeatherLink 5.7,2013-05-29 02:34:00,
2013-05-28 22:44:00,60.2,58.8,30.17,ENE,67,2.0,4.0,95,0.00,,,-99.99,WeatherLink 5.7,2013-05-29 02:44:00,
2013-05-28 22:54:00,60.2,58.8,30.17,ENE,67,1.0,4.0,95,0.00,,,-99.99,WeatherLink 5.7,2013-05-29 02:54:00,
2013-05-28 23:04:00,59.9,58.2,30.17,ENE,67,1.0,3.0,94,0.00,,,-99.99,WeatherLink 5.7,2013-05-29 03:04:00,
2013-05-28 23:14:00,60.0,58.3,30.18,ENE,67,0.0,2.0,94,0.00,,,-99.99,WeatherLink 5.7,2013-05-29 03:14:00,
2013-05-28 23:24:00,59.7,58.3,30.17,ENE,67,0.0,3.0,95,0.00,,,-99.99,WeatherLink 5.7,2013-05-29 03:24:00,
2013-05-28 23:34:00,59.7,58.3,30.17,ENE,67,1.0,3.0,95,0.00,,,-99.99,WeatherLink 5.7,2013-05-29 03:34:00,
2013-05-28 23:44:00,60.1,58.7,30.17,ENE,67,1.0,3.0,95,0.00,,,-99.99,WeatherLink 5.7,2013-05-29 03:44:00,
2013-05-28 23:54:00,60.1,58.4,30.17,ENE,67,1.0,4.0,94,0.00,,,-99.99,WeatherLink 5.7,2013-05-29 03:54:00,